FW8254 Weather Reports


Display with metric or nautical units.
time (UTC)temp
F
wind
direction
speed
MPH
gust
MPH
rain 1hr
in
rain 24hr
in
rain mn
in
humidity
%
barometer
mb
20260509183100 71 275 5.0 9.0 0.00 0.00 0.00 73 1007.4
20260509182556 71 282 3.0 5.0 0.00 0.00 0.00 73 1007.2
20260509182053 71 168 3.0 3.0 0.00 0.00 0.00 73 1007.4
20260509181552 70 296 3.0 6.0 0.00 0.00 0.00 73 1007.5
20260509181048 71 294 5.0 9.0 0.00 0.00 0.00 73 1007.4
20260509180544 71 281 4.0 5.0 0.00 0.00 0.00 73 1007.5
20260509180042 71 278 5.0 6.0 0.00 0.00 0.00 73 1007.4
20260509175537 71 271 5.0 6.0 0.00 0.00 0.00 73 1007.5
20260509175035 71 335 3.0 5.0 0.00 0.00 0.00 72 1007.3
20260509174531 71 310 4.0 7.0 0.00 0.00 0.00 73 1007.5
20260509174026 71 319 3.0 3.0 0.00 0.00 0.00 73 1007.4
20260509173520 70 316 3.0 7.0 0.00 0.00 0.00 74 1007.5
20260509173017 70 322 4.0 7.0 0.00 0.00 0.00 72 1007.4
20260509172514 70 277 7.0 8.0 0.00 0.00 0.00 73 1007.7
20260509172010 70 300 5.0 6.0 0.00 0.00 0.00 72 1007.6
20260509171506 70 319 3.0 5.0 0.00 0.00 0.00 72 1007.4
20260509171003 70 311 3.0 5.0 0.00 0.00 0.00 73 1007.3
20260509170458 70 298 5.0 7.0 0.00 0.00 0.00 73 1007.5
20260509165954 70 276 5.0 7.0 0.00 0.00 0.00 73 1007.7
20260509165453 70 353 4.0 7.0 0.00 0.00 0.00 72 1007.7
20260509164949 70 293 8.0 8.0 0.00 0.00 0.00 73 1007.4
20260509164445 70 311 3.0 5.0 0.00 0.00 0.00 73 1007.6
20260509163941 70 271 5.0 6.0 0.00 0.00 0.00 73 1007.7
20260509163438 70 289 4.0 5.0 0.00 0.00 0.00 73 1007.7
20260509162937 70 296 5.0 8.0 0.00 0.00 0.00 73 1007.8
20260509162437 70 292 6.0 7.0 0.00 0.00 0.00 74 1007.9
20260509161932 70 288 5.0 6.0 0.00 0.00 0.00 73 1008.0
20260509161429 70 280 5.0 7.0 0.00 0.00 0.00 73 1007.7
20260509160924 70 19 3.0 6.0 0.00 0.00 0.00 73 1007.9
20260509160420 69 297 4.0 6.0 0.00 0.00 0.00 73 1007.9
20260509155915 69 250 5.0 6.0 0.00 0.00 0.00 72 1007.7
20260509155412 69 61 2.0 7.0 0.00 0.00 0.00 72 1008.1
20260509154909 69 291 4.0 6.0 0.00 0.00 0.00 72 1008.0
20260509154405 69 288 7.0 10.0 0.00 0.00 0.00 73 1008.2
20260509153902 69 291 5.0 7.0 0.00 0.00 0.00 73 1008.3
20260509153359 69 286 6.0 8.0 0.00 0.00 0.00 73 1008.3
20260509152856 69 99 3.0 5.0 0.00 0.00 0.00 73 1008.2
20260509152352 69 298 3.0 6.0 0.00 0.00 0.00 73 1008.3
20260509151849 69 291 4.0 6.0 0.00 0.00 0.00 74 1008.4
20260509151345 69 299 3.0 6.0 0.00 0.00 0.00 76 1008.0
20260509150844 69 138 3.0 5.0 0.00 0.00 0.00 76 1007.9
20260509150341 68 302 3.0 5.0 0.00 0.00 0.00 76 1007.9
20260509145838 68 341 2.0 3.0 0.00 0.00 0.00 76 1008.2
20260509145332 68 292 5.0 7.0 0.00 0.00 0.00 76 1008.2
20260509144830 68 292 3.0 7.0 0.00 0.00 0.00 76 1008.2
20260509144326 67 288 5.0 6.0 0.00 0.00 0.00 77 1008.1
20260509143823 67 344 4.0 5.0 0.00 0.00 0.00 77 1008.3
20260509143321 67 60 1.0 2.0 0.00 0.00 0.00 77 1008.1
20260509142817 67 312 3.0 6.0 0.00 0.00 0.00 77 1008.2
20260509142313 67 292 3.0 6.0 0.00 0.00 0.00 77 1008.4
20260509141809 67 276 5.0 6.0 0.00 0.00 0.00 77 1008.5
20260509141306 67 300 5.0 7.0 0.00 0.00 0.00 76 1008.5
20260509140802 67 301 5.0 6.0 0.00 0.00 0.00 76 1008.8
20260509140259 67 335 3.0 7.0 0.00 0.00 0.00 78 1008.6
20260509135757 67 327 3.0 5.0 0.00 0.00 0.00 79 1008.9
20260509135254 67 319 3.0 6.0 0.00 0.00 0.00 78 1008.4
20260509134752 67 8 3.0 3.0 0.00 0.00 0.00 78 1008.5
20260509134249 67 43 0.0 1.0 0.00 0.00 0.00 78 1008.2
20260509133746 67 17 3.0 7.0 0.00 0.00 0.00 79 1008.4
20260509133243 67 287 5.0 7.0 0.00 0.00 0.00 78 1008.4
20260509132742 67 299 5.0 6.0 0.00 0.00 0.00 77 1008.3
20260509132240 66 50 1.0 2.0 0.00 0.00 0.00 78 1008.4
20260509131736 66 325 3.0 5.0 0.00 0.00 0.00 78 1008.5
20260509131233 66 263 4.0 7.0 0.00 0.00 0.00 78 1008.4
20260509130729 66 69 2.0 2.0 0.00 0.00 0.00 79 1008.4
20260509130225 66 332 2.0 3.0 0.00 0.00 0.00 79 1008.1
20260509125721 65 25 2.0 2.0 0.00 0.00 0.00 80 1008.3
20260509125219 65 6 1.0 2.0 0.00 0.00 0.00 81 1008.4
20260509124715 65 10 2.0 2.0 0.00 0.00 0.00 81 1008.7
20260509124212 64 333 3.0 3.0 0.00 0.00 0.00 82 1008.8
20260509123710 64 14 1.0 2.0 0.00 0.00 0.00 83 1008.4
20260509123207 64 304 5.0 6.0 0.00 0.00 0.00 83 1008.5
20260509122702 64 321 3.0 3.0 0.00 0.00 0.00 84 1008.2
20260509122159 64 338 2.0 3.0 0.00 0.00 0.00 85 1008.4
20260509121656 63 346 2.0 2.0 0.00 0.00 0.00 85 1008.3
20260509121154 63 42 1.0 1.0 0.00 0.00 0.00 86 1008.3
20260509120652 62 46 0.0 1.0 0.00 0.00 0.00 87 1008.4
20260509120149 62 28 0.0 1.0 0.00 0.00 0.00 87 1008.6
20260509115647 62 38 0.0 1.0 0.00 0.00 0.00 87 1008.5
20260509115144 62 39 0.0 1.0 0.00 0.00 0.00 87 1008.5
20260509114642 61 37 1.0 1.0 0.00 0.00 0.00 87 1008.6
20260509114141 61 34 0.0 1.0 0.00 0.00 0.00 87 1008.7
20260509113639 61 32 0.0 0.0 0.00 0.00 0.00 87 1008.8
20260509113136 61 14 0.0 1.0 0.00 0.00 0.00 87 1008.7
20260509112632 61 12 1.0 2.0 0.00 0.00 0.00 87 1008.9
20260509112129 61 22 0.0 0.0 0.00 0.00 0.00 87 1009.1
20260509111626 61 22 0.0 0.0 0.00 0.00 0.00 87 1008.9
20260509111123 61 32 0.0 0.0 0.00 0.00 0.00 87 1008.9
20260509110620 61 32 0.0 0.0 0.00 0.00 0.00 87 1008.9
20260509110117 61 20 1.0 1.0 0.00 0.00 0.00 87 1009.0
20260509105616 61 20 0.0 0.0 0.00 0.00 0.00 87 1009.0
20260509105113 61 20 0.0 1.0 0.00 0.00 0.00 87 1008.9
20260509104610 61 20 0.0 0.0 0.00 0.00 0.00 87 1008.9
20260509104108 61 20 0.0 0.0 0.00 0.00 0.00 87 1008.7
20260509103604 61 20 1.0 1.0 0.00 0.00 0.00 87 1008.8
20260509103102 61 8 1.0 2.0 0.00 0.00 0.00 87 1008.8
20260509102559 61 14 1.0 2.0 0.00 0.00 0.00 87 1008.8
20260509102056 60 1 1.0 2.0 0.00 0.00 0.00 87 1008.6
20260509101552 61 35 0.0 0.0 0.00 0.00 0.00 87 1008.1
20260509101049 60 35 0.0 2.0 0.00 0.00 0.00 87 1008.0
20260509100546 60 44 0.0 1.0 0.00 0.00 0.00 87 1007.9
20260509100044 60 43 0.0 0.0 0.00 0.00 0.00 87 1008.0
20260509095540 60 43 0.0 1.0 0.00 0.00 0.00 87 1007.6
20260509095038 60 43 0.0 0.0 0.00 0.00 0.00 86 1007.7
20260509094534 60 42 0.0 0.0 0.00 0.00 0.00 86 1007.9
20260509094031 60 43 1.0 1.0 0.00 0.00 0.00 86 1007.7
20260509093529 60 46 0.0 0.0 0.00 0.00 0.00 86 1007.4
20260509093027 60 46 0.0 0.0 0.00 0.00 0.00 86 1007.7
20260509092524 60 46 0.0 0.0 0.00 0.00 0.00 85 1007.4
20260509092023 60 46 0.0 1.0 0.00 0.00 0.00 85 1007.4
20260509091520 60 46 0.0 0.0 0.00 0.00 0.00 85 1007.4
20260509091016 60 46 0.0 0.0 0.00 0.00 0.00 85 1007.5
20260509090514 61 46 0.0 0.0 0.00 0.00 0.00 85 1007.4
20260509090012 61 46 0.0 0.0 0.00 0.00 0.00 85 1007.6
20260509085508 61 46 0.0 0.0 0.00 0.00 0.00 84 1007.6
20260509085004 61 46 0.0 1.0 0.00 0.00 0.00 84 1007.5
20260509084502 61 46 0.0 0.0 0.00 0.00 0.00 84 1007.7
20260509083959 61 46 0.0 0.0 0.00 0.00 0.00 84 1007.3
20260509083456 61 46 0.0 0.0 0.00 0.00 0.00 84 1007.4
20260509082952 61 46 0.0 1.0 0.00 0.00 0.00 84 1007.4
20260509082450 61 46 0.0 1.0 0.00 0.00 0.00 83 1007.4
20260509081947 61 46 0.0 1.0 0.00 0.00 0.00 83 1007.7
20260509081444 61 45 0.0 0.0 0.00 0.00 0.00 83 1007.7
20260509080941 61 49 0.0 0.0 0.00 0.00 0.00 83 1008.0
20260509080439 61 49 0.0 0.0 0.00 0.00 0.00 83 1007.7
20260509075937 61 49 0.0 0.0 0.00 0.00 0.00 83 1007.8
20260509075434 61 49 0.0 0.0 0.00 0.00 0.00 83 1007.8
20260509074932 61 49 0.0 0.0 0.00 0.00 0.00 83 1007.9
20260509074429 61 49 0.0 1.0 0.00 0.00 0.00 83 1007.9
20260509073925 61 49 0.0 1.0 0.00 0.00 0.00 83 1007.9
20260509073421 61 50 0.0 1.0 0.00 0.00 0.00 83 1008.1
20260509072918 61 50 0.0 0.0 0.00 0.00 0.00 83 1008.2
20260509072415 61 50 0.0 0.0 0.00 0.00 0.00 82 1008.1
20260509071911 61 50 0.0 0.0 0.00 0.00 0.00 82 1008.2
20260509071408 61 50 0.0 1.0 0.00 0.00 0.00 82 1008.1
20260509070906 61 50 0.0 1.0 0.00 0.00 0.00 82 1008.6
20260509070402 61 50 0.0 0.0 0.00 0.00 0.00 82 1008.4
20260509065858 61 50 0.0 0.0 0.00 0.00 0.00 82 1008.5
20260509065355 61 50 0.0 0.0 0.00 0.00 0.00 82 1008.4
20260509064850 61 50 0.0 0.0 0.00 0.00 0.00 82 1008.7
20260509064348 61 50 0.0 0.0 0.00 0.00 0.00 82 1008.6
20260509063846 61 50 0.0 0.0 0.00 0.00 0.00 82 1008.9
20260509063342 61 50 0.0 0.0 0.00 0.00 0.00 81 1008.8
20260509062839 61 50 0.0 0.0 0.00 0.00 0.00 81 1008.6
20260509062336 61 50 0.0 0.0 0.00 0.00 0.00 81 1008.8
20260509061833 61 50 0.0 0.0 0.00 0.00 0.00 80 1008.9
20260509061332 61 50 0.0 0.0 0.00 0.00 0.00 80 1009.1
20260509060828 61 50 0.0 0.0 0.00 0.00 0.00 80 1008.9
20260509060325 61 50 0.0 0.0 0.00 0.00 0.00 80 1009.2
20260509055820 61 50 0.0 0.0 0.00 0.00 0.00 80 1009.2
20260509055316 61 50 0.0 0.0 0.00 0.00 0.00 80 1009.2
20260509054813 62 50 0.0 1.0 0.00 0.00 0.00 79 1009.3
20260509054310 62 50 0.0 0.0 0.00 0.00 0.00 79 1009.3
20260509053808 62 50 0.0 0.0 0.00 0.00 0.00 79 1009.6
20260509053305 62 50 0.0 0.0 0.00 0.00 0.00 79 1009.7
20260509052803 61 50 0.0 0.0 0.00 0.00 0.00 79 1009.9
20260509052300 61 50 0.0 0.0 0.00 0.00 0.00 79 1009.7
20260509051758 61 50 0.0 0.0 0.00 0.00 0.00 80 1010.1
20260509051256 61 50 0.0 0.0 0.00 0.00 0.00 80 1009.8
20260509050752 61 50 0.0 1.0 0.00 0.00 0.00 80 1009.9
20260509050249 61 51 0.0 0.0 0.00 0.00 0.00 81 1010.0
20260509045746 61 51 0.0 0.0 0.00 0.00 0.00 81 1010.0
20260509045243 61 51 0.0 0.0 0.00 0.00 0.00 81 1009.9
20260509044740 62 52 0.0 0.0 0.00 0.00 0.00 82 1009.9
20260509044238 62 51 0.0 0.0 0.00 0.00 0.00 82 1010.0
20260509043734 62 51 0.0 0.0 0.00 0.00 0.00 81 1010.2
20260509043230 62 51 0.0 0.0 0.00 0.00 0.00 81 1010.0
20260509042726 62 52 0.0 0.0 0.00 0.00 0.00 80 1010.3
20260509042222 62 52 0.0 1.0 0.00 0.00 0.00 79 1009.8
20260509041719 62 51 0.0 0.0 0.00 0.00 0.00 79 1010.1
20260509041217 62 51 0.0 0.0 0.00 0.00 0.00 78 1010.4
20260509040715 62 51 0.0 0.0 0.00 0.00 0.00 77 1010.3
20260509040212 62 51 0.0 0.0 0.00 0.00 0.00 77 1010.2
20260509035708 62 51 0.0 0.0 0.00 0.00 0.00 78 1010.5
20260509035205 62 51 0.0 0.0 0.00 0.00 0.00 78 1010.5
20260509034702 62 51 0.0 0.0 0.00 0.00 0.00 79 1010.2
20260509034200 62 51 0.0 1.0 0.00 0.00 0.00 80 1010.5
20260509033657 62 51 0.0 0.0 0.00 0.00 0.00 80 1010.8
20260509033153 62 57 0.0 0.0 0.00 0.00 0.00 79 1010.8
20260509032651 62 57 0.0 0.0 0.00 0.00 0.00 79 1010.7
20260509032147 62 57 0.0 0.0 0.00 0.00 0.00 79 1010.4
20260509031645 62 57 0.0 0.0 0.00 0.00 0.00 80 1010.4
20260509031142 62 57 0.0 0.0 0.00 0.00 0.00 80 1010.4
20260509030641 62 57 0.0 0.0 0.00 0.00 0.00 80 1010.2
20260509030138 62 57 0.0 0.0 0.00 0.00 0.00 80 1010.1
20260509025633 62 57 0.0 0.0 0.00 0.00 0.00 80 1010.1
20260509025129 62 57 0.0 0.0 0.00 0.00 0.00 79 1010.2
20260509024625 63 57 0.0 0.0 0.00 0.00 0.00 79 1010.2
20260509024121 62 57 0.0 0.0 0.00 0.00 0.00 79 1010.1
20260509023620 63 57 0.0 0.0 0.00 0.00 0.00 79 1010.6
20260509023116 63 57 0.0 0.0 0.00 0.00 0.00 79 1010.5
20260509022612 63 57 0.0 0.0 0.00 0.00 0.00 79 1010.4
20260509022110 63 57 0.0 0.0 0.00 0.00 0.00 79 1010.3
20260509021607 63 57 0.0 0.0 0.00 0.00 0.00 78 1010.4
20260509021104 64 57 0.0 0.0 0.00 0.00 0.00 78 1010.3
20260509020603 64 57 0.0 0.0 0.00 0.00 0.00 77 1010.1
20260509020059 64 57 0.0 0.0 0.00 0.00 0.00 74 1010.4
20260509015558 64 57 0.0 0.0 0.00 0.00 0.00 72 1010.3
20260509015055 64 57 0.0 1.0 0.00 0.00 0.00 72 1010.3
20260509014551 64 57 0.0 1.0 0.00 0.00 0.00 72 1010.1
20260509014048 63 57 0.0 0.0 0.00 0.00 0.00 73 1010.1
20260509013545 63 57 0.0 0.0 0.00 0.00 0.00 74 1010.1
20260509013040 64 58 0.0 0.0 0.00 0.00 0.00 75 1010.1
20260509012537 64 58 0.0 0.0 0.00 0.00 0.00 76 1010.4
20260509012034 64 58 0.0 0.0 0.00 0.00 0.00 76 1010.2
20260509011532 64 58 0.0 0.0 0.00 0.00 0.00 76 1010.1
20260509011029 65 58 0.0 0.0 0.00 0.00 0.00 75 1010.0
20260509010527 65 58 0.0 0.0 0.00 0.00 0.00 75 1009.9
20260509010023 65 58 0.0 0.0 0.00 0.00 0.00 74 1009.9
20260509005521 65 58 0.0 0.0 0.00 0.00 0.00 74 1009.9
20260509005021 65 58 0.0 1.0 0.00 0.00 0.00 74 1009.7
20260509004518 66 58 0.0 0.0 0.00 0.00 0.00 74 1009.7
20260509004015 66 58 0.0 0.0 0.00 0.00 0.00 73 1009.9
20260509003514 66 58 0.0 0.0 0.00 0.00 0.00 73 1010.0
20260509003010 66 58 0.0 0.0 0.00 0.00 0.00 71 1009.9
20260509002508 66 58 0.0 0.0 0.00 0.00 0.00 68 1009.7
20260509002005 66 58 0.0 0.0 0.00 0.00 0.00 67 1009.6
20260509001502 66 58 0.0 0.0 0.00 0.00 0.00 67 1009.9
20260509000958 66 58 0.0 0.0 0.00 0.00 0.00 67 1009.7
20260509000457 67 58 0.0 0.0 0.00 0.00 0.00 67 1009.4
20260508235952 67 58 0.0 0.0 0.00 0.00 0.00 66 1009.4
20260508235450 67 58 0.0 0.0 0.00 0.00 0.00 67 1009.3
20260508234946 67 58 0.0 0.0 0.00 0.00 0.00 66 1009.2
20260508234443 67 58 0.0 0.0 0.00 0.00 0.00 66 1009.3
20260508233941 68 58 0.0 0.0 0.00 0.00 0.00 66 1009.4
20260508233440 68 58 0.0 0.0 0.00 0.00 0.00 65 1009.3
20260508232936 68 58 0.0 0.0 0.00 0.00 0.00 64 1009.5
20260508232434 68 58 0.0 0.0 0.00 0.00 0.00 63 1009.5
20260508231931 68 58 0.0 0.0 0.00 0.00 0.00 62 1009.5
20260508231428 68 58 0.0 0.0 0.00 0.00 0.00 62 1009.3
20260508230925 68 58 0.0 0.0 0.00 0.00 0.00 62 1009.4
20260508230421 69 58 0.0 0.0 0.00 0.00 0.00 61 1009.4
20260508225919 69 58 0.0 0.0 0.00 0.00 0.00 61 1009.6
20260508225415 69 58 0.0 0.0 0.00 0.00 0.00 59 1009.6
20260508224913 69 58 0.0 0.0 0.00 0.00 0.00 59 1009.3
20260508224410 69 58 0.0 0.0 0.00 0.00 0.00 58 1009.5
20260508223907 69 58 0.0 0.0 0.00 0.00 0.00 57 1009.5
20260508223405 69 58 0.0 1.0 0.00 0.00 0.00 56 1009.5
20260508222902 70 58 0.0 0.0 0.00 0.00 0.00 57 1009.6
20260508222359 70 58 0.0 0.0 0.00 0.00 0.00 57 1009.5
20260508221856 70 58 0.0 0.0 0.00 0.00 0.00 56 1009.2
20260508221351 70 58 0.0 1.0 0.00 0.00 0.00 54 1009.5
20260508220848 70 58 0.0 1.0 0.00 0.00 0.00 53 1009.1
20260508220344 71 57 0.0 1.0 0.00 0.00 0.00 54 1009.3
20260508215841 71 57 0.0 1.0 0.00 0.00 0.00 53 1009.3
20260508215338 71 57 0.0 1.0 0.00 0.00 0.00 52 1009.1
20260508214835 71 55 0.0 0.0 0.00 0.00 0.00 53 1009.3
20260508214332 71 55 0.0 1.0 0.00 0.00 0.00 52 1009.6
20260508213828 72 52 1.0 1.0 0.00 0.00 0.00 50 1009.7
20260508213325 72 51 0.0 0.0 0.00 0.00 0.00 52 1009.4
20260508212821 71 51 0.0 0.0 0.00 0.00 0.00 50 1009.7
20260508212318 71 51 0.0 0.0 0.00 0.00 0.00 51 1009.5
20260508211814 72 51 0.0 0.0 0.00 0.00 0.00 50 1009.5
20260508211309 72 47 0.0 0.0 0.00 0.00 0.00 50 1009.5
20260508210807 73 47 0.0 1.0 0.00 0.00 0.00 50 1009.3
20260508210304 72 43 0.0 1.0 0.00 0.00 0.00 48 1009.4
20260508205801 72 55 1.0 1.0 0.00 0.00 0.00 48 1009.4
20260508205257 72 55 1.0 1.0 0.00 0.00 0.00 48 1009.3
20260508204753 73 65 2.0 2.0 0.00 0.00 0.00 46 1009.6
20260508204250 73 47 0.0 0.0 0.00 0.00 0.00 47 1009.5
20260508203746 72 47 0.0 0.0 0.00 0.00 0.00 49 1009.6
20260508203243 72 59 0.0 2.0 0.00 0.00 0.00 48 1009.7
20260508202738 73 24 0.0 1.0 0.00 0.00 0.00 48 1010.0
20260508202236 73 26 1.0 1.0 0.00 0.00 0.00 48 1010.0
20260508201733 74 28 1.0 1.0 0.00 0.00 0.00 46 1010.0
20260508201229 73 54 0.0 0.0 0.00 0.00 0.00 48 1010.1
20260508200726 73 57 0.0 2.0 0.00 0.00 0.00 46 1009.9
20260508200222 73 45 0.0 1.0 0.00 0.00 0.00 46 1010.1
20260508195719 73 50 1.0 2.0 0.00 0.00 0.00 46 1009.9
20260508195215 74 51 1.0 1.0 0.00 0.00 0.00 46 1010.1
20260508194712 73 49 0.0 2.0 0.00 0.00 0.00 45 1010.1
20260508194209 74 53 1.0 3.0 0.00 0.00 0.00 44 1010.1
20260508193706 74 35 0.0 0.0 0.00 0.00 0.00 44 1010.1
20260508193203 73 35 0.0 1.0 0.00 0.00 0.00 45 1010.4
20260508192659 73 66 2.0 2.0 0.00 0.00 0.00 44 1010.2
20260508192156 73 66 2.0 2.0 0.00 0.00 0.00 44 1010.5
20260508191654 73 64 0.0 2.0 0.00 0.00 0.00 47 1010.5
20260508191150 73 74 2.0 2.0 0.00 0.00 0.00 46 1010.6
20260508190648 74 64 2.0 2.0 0.00 0.00 0.00 44 1010.7
20260508190144 73 29 0.0 3.0 0.00 0.00 0.00 44 1010.7
20260508185641 73 61 1.0 6.0 0.00 0.00 0.00 45 1010.9
20260508185138 72 24 1.0 2.0 0.00 0.00 0.00 46 1011.3
20260508184635 72 52 0.0 1.0 0.00 0.00 0.00 47 1011.2
20260508184132 73 74 2.0 2.0 0.00 0.00 0.00 44 1011.2
20260508183629 72 54 1.0 2.0 0.00 0.00 0.00 47 1011.3